Find Starlink 33902

NORAD ID: 65920 Int'l Des: 2025-225 Owner: SPXS Country: US Constellation: starlink operational
LEOCIRCULAR

实时位置

正在加载3D地球...

关于 Starlink 33902

正在加载描述...

即将过境

Passes for default location (London). Set your location on the main map for personalized predictions.

高度历史

Loading altitude history...

两行轨道根数

1 65920U 25225L 26105.91465751 .00005301 00000-0 19096-3 0 9997
2 65920 53.1591 353.0431 0001053 98.9843 261.1277 15.30199234 30104
Epoch: Apr 15, 2026 • Age: 18 hours

当前状态

高度 480.3 km
速度 7.63 km/s
星下点 49.63°N, 26.53°W
发射日期 Oct 8, 2025
运行时间 0.5 years
类型 internet

技术详情

分类 Payload
质量 575.00 kg
干质量 530.00 kg
总质量 575.00 kg
长度 0.30 m
直径 4.10 m
跨度 29.00 m
形状 Box + pan
制造商 SPXS
平台类型 Starlink V2MO
阶段状态 In Orbit
所有者/国家 SPXS/US

Most Searched